Location: Gand�
(15.0971°N, 12.6564°W)
Time: 13:53:01
(UTC+00:00)

Cosmos 1844 Rocket - Pass Details

Date: 07 August 2020
Orbit: 825 x 844 km, 71.0° (Epoch: 19 September)

Event Time Altitude Azimuth Distance (km) Brightness Sun altitude
Exits shadow 04:26:46 32° 144° (SE) 1,379 3.8 -29.3°
Maximum altitude 04:28:29 41° 104° (ESE) 1,187 3.7 -29.0°
Drops below altitude 10° 04:33:39 10° 35° (NE) 2,423 5.9 -27.9°
Sets 04:36:11 0° 29° (NNE) 3,355 6.6 -27.3°
